EW7318 Weather Reports


Display with metric or nautical units.
time (UTC)temp
F
wind
direction
speed
MPH
gust
MPH
rain 1hr
in
rain 24hr
in
rain mn
in
humidity
%
barometer
mb
20210801070450 56 140 0.0 0.0 0.00 0.00 0.00 86 1003.6
20210801065944 55 140 0.0 0.0 0.00 0.00 0.00 86 1003.4
20210801065434 56 140 0.0 0.0 0.00 0.00 0.00 86 1003.6
20210801064916 56 140 0.0 0.0 0.00 0.00 0.00 86 1003.6
20210801064406 56 139 0.0 0.0 0.00 0.00 0.00 86 1003.6
20210801063900 56 140 0.0 0.0 0.00 0.00 0.00 85 1003.6
20210801063354 56 140 0.0 0.0 0.00 0.00 0.00 85 1003.5
20210801062844 56 140 0.0 0.0 0.00 0.00 0.00 85 1003.7
20210801062335 57 140 0.0 0.0 0.00 0.00 0.00 84 1003.8
20210801061827 56 140 0.0 0.0 0.00 0.00 0.00 84 1003.7
20210801061319 56 140 0.0 0.0 0.00 0.00 0.00 84 1003.8
20210801060811 57 140 0.0 0.0 0.00 0.00 0.00 83 1003.9
20210801060303 57 139 0.0 0.0 0.00 0.00 0.00 83 1003.7
20210801055754 57 139 0.0 0.0 0.00 0.00 0.00 84 1003.8
20210801055247 57 140 0.0 0.0 0.00 0.00 0.00 83 1003.9
20210801054739 57 140 0.0 0.0 0.00 0.00 0.00 83 1004.0
20210801054231 57 140 0.0 0.0 0.00 0.00 0.00 83 1003.9
20210801053723 57 140 0.0 0.0 0.00 0.00 0.00 84 1004.1
20210801053217 57 140 0.0 0.0 0.00 0.00 0.00 85 1004.0
20210801052707 57 140 0.0 0.0 0.00 0.00 0.00 86 1004.1
20210801052158 57 140 0.0 0.0 0.00 0.00 0.00 85 1004.0
20210801051651 57 140 0.0 0.0 0.00 0.00 0.00 85 1004.2
20210801051142 57 140 0.0 0.0 0.00 0.00 0.00 85 1004.2
20210801050635 57 140 0.0 0.0 0.00 0.00 0.00 84 1004.0
20210801050128 57 140 0.0 0.0 0.00 0.00 0.00 85 1004.0
20210801045624 57 140 0.0 0.0 0.00 0.00 0.00 85 1004.1
20210801045112 57 140 0.0 0.0 0.00 0.00 0.00 84 1004.1
20210801044604 57 139 0.0 0.0 0.00 0.00 0.00 85 1004.0
20210801044054 57 139 0.0 0.0 0.00 0.00 0.00 86 1004.2
20210801043547 57 140 0.0 0.0 0.00 0.00 0.00 86 1004.1
20210801043041 57 140 0.0 0.0 0.00 0.00 0.00 86 1003.9
20210801042530 57 140 0.0 0.0 0.00 0.00 0.00 86 1004.0
20210801042022 58 140 0.0 0.0 0.00 0.00 0.00 85 1003.8
20210801041516 58 140 0.0 0.0 0.00 0.00 0.00 85 1003.8
20210801041007 58 140 0.0 0.0 0.00 0.00 0.00 84 1003.9
20210801040459 58 140 0.0 0.0 0.00 0.00 0.00 83 1003.9
20210801035951 58 140 0.0 0.0 0.00 0.00 0.00 84 1003.8
20210801035445 58 140 0.0 0.0 0.00 0.00 0.00 83 1004.0
20210801034935 58 140 0.0 0.0 0.00 0.00 0.00 83 1003.8
20210801034427 59 140 0.0 0.0 0.00 0.00 0.00 82 1003.6
20210801033908 59 140 0.0 0.0 0.00 0.00 0.00 82 1004.1
20210801033401 59 140 0.0 0.0 0.00 0.00 0.00 81 1004.0
20210801032852 59 140 0.0 0.0 0.00 0.00 0.00 81 1004.0
20210801032344 59 140 0.0 0.0 0.00 0.00 0.00 81 1003.9
20210801031836 59 140 0.0 0.0 0.00 0.00 0.00 81 1004.0
20210801031329 60 140 0.0 0.0 0.00 0.00 0.00 81 1004.1
20210801030820 60 140 0.0 0.0 0.00 0.00 0.00 81 1004.0
20210801030311 60 140 0.0 1.0 0.00 0.00 0.00 80 1003.8
20210801025804 60 140 0.0 1.0 0.00 0.00 0.00 79 1004.1
20210801025305 61 140 0.0 0.0 0.00 0.00 0.00 79 1003.9
20210801024747 61 140 0.0 0.0 0.00 0.00 0.00 79 1004.1
20210801024241 61 140 0.0 0.0 0.00 0.00 0.00 78 1004.2
20210801023736 61 139 0.0 0.0 0.00 0.00 0.00 78 1003.9
20210801023223 62 139 0.0 0.0 0.00 0.00 0.00 78 1004.1
20210801022717 62 140 0.0 0.0 0.00 0.00 0.00 78 1004.3
20210801022208 62 143 0.0 0.0 0.00 0.00 0.00 76 1004.3
20210801021703 62 144 0.0 0.0 0.00 0.00 0.00 76 1004.4
20210801021153 63 149 0.0 1.0 0.00 0.00 0.00 76 1004.4
20210801020636 64 158 0.0 1.0 0.00 0.00 0.00 73 1004.2
20210801020126 64 145 0.0 2.0 0.00 0.00 0.00 72 1004.3
20210801015617 64 146 0.0 2.0 0.00 0.00 0.00 72 1004.3
20210801015109 64 140 0.0 2.0 0.00 0.00 0.00 72 1004.2
20210801014601 63 167 0.0 2.0 0.00 0.00 0.00 73 1004.0
20210801014054 62 161 0.0 2.0 0.00 0.00 0.00 74 1004.1
20210801013544 62 165 0.0 0.0 0.00 0.00 0.00 78 1004.1
20210801013038 62 165 0.0 0.0 0.00 0.00 0.00 79 1004.1
20210801012530 63 165 0.0 0.0 0.00 0.00 0.00 78 1004.1
20210801012009 63 165 0.0 0.0 0.00 0.00 0.00 77 1004.1
20210801011502 63 165 0.0 0.0 0.00 0.00 0.00 76 1003.9
20210801010954 63 165 0.0 0.0 0.00 0.00 0.00 76 1003.9
20210801010446 63 165 0.0 0.0 0.00 0.00 0.00 76 1003.8
20210801005940 63 165 0.0 0.0 0.00 0.00 0.00 77 1003.6
20210801005430 63 165 0.0 0.0 0.00 0.00 0.00 77 1003.6
20210801004922 63 165 0.0 0.0 0.00 0.00 0.00 76 1003.6
20210801004403 63 165 0.0 0.0 0.00 0.00 0.00 74 1003.6
20210801003856 63 165 0.0 0.0 0.00 0.00 0.00 74 1003.7
20210801003349 64 165 0.0 0.0 0.00 0.00 0.00 74 1003.7
20210801002839 64 165 0.0 0.0 0.00 0.00 0.00 73 1003.5
20210801002331 64 165 0.0 0.0 0.00 0.00 0.00 72 1003.4
20210801001823 64 165 0.0 0.0 0.00 0.00 0.00 72 1003.4
20210801001317 65 165 0.0 0.0 0.00 0.00 0.00 70 1003.3
20210801000808 65 165 0.0 0.0 0.00 0.00 0.00 70 1003.1
20210801000303 65 163 0.0 1.0 0.00 0.00 0.00 70 1003.0
20210731235752 65 163 0.0 1.0 0.00 0.00 0.00 70 1003.0
20210731235246 66 164 0.0 0.0 0.00 0.00 0.00 69 1002.9
20210731234735 67 163 0.0 1.0 0.00 0.00 0.00 69 1002.8
20210731234226 67 164 0.0 1.0 0.00 0.00 0.00 67 1002.8
20210731233722 68 162 0.0 1.0 0.00 0.00 0.00 65 1002.9
20210731233210 69 163 0.0 2.0 0.00 0.00 0.00 65 1002.7
20210731232704 70 148 0.0 2.0 0.00 0.00 0.00 64 1002.7
20210731232155 70 157 0.0 2.0 0.00 0.00 0.00 61 1002.8
20210731231646 70 142 0.0 1.0 0.00 0.00 0.00 60 1002.8
20210731231140 71 157 0.0 6.0 0.00 0.00 0.00 59 1002.9
20210731230631 71 150 0.0 6.0 0.00 0.00 0.00 54 1002.7
20210731230123 71 118 0.0 4.0 0.00 0.00 0.00 53 1002.8
20210731225617 72 165 3.0 3.0 0.00 0.00 0.00 53 1002.8
20210731225108 72 130 1.0 7.0 0.00 0.00 0.00 52 1002.8
20210731224602 73 208 3.0 7.0 0.00 0.00 0.00 50 1002.7
20210731224050 73 64 2.0 6.0 0.00 0.00 0.00 49 1002.6
20210731223543 74 21 4.0 6.0 0.00 0.00 0.00 47 1002.8
20210731223036 73 5 1.0 4.0 0.00 0.00 0.00 49 1003.1
20210731222527 73 237 2.0 7.0 0.00 0.00 0.00 48 1002.7
20210731222020 73 350 2.0 7.0 0.00 0.00 0.00 47 1002.9
20210731221511 74 352 2.0 7.0 0.00 0.00 0.00 47 1002.9
20210731220953 74 267 3.0 7.0 0.00 0.00 0.00 47 1002.8
20210731220444 74 216 0.0 6.0 0.00 0.00 0.00 46 1002.6
20210731215942 74 270 2.0 7.0 0.00 0.00 0.00 44 1002.9
20210731215427 74 38 1.0 7.0 0.00 0.00 0.00 46 1002.7
20210731214921 74 158 1.0 7.0 0.00 0.00 0.00 45 1003.1
20210731214413 74 312 3.0 9.0 0.00 0.00 0.00 46 1002.9
20210731213918 74 342 6.0 9.0 0.00 0.00 0.00 45 1003.3
20210731213355 74 292 2.0 10.0 0.00 0.00 0.00 46 1003.1
20210731212849 74 287 2.0 10.0 0.00 0.00 0.00 47 1003.1
20210731212341 74 319 3.0 9.0 0.00 0.00 0.00 46 1003.2
20210731211832 74 140 1.0 8.0 0.00 0.00 0.00 47 1003.1
20210731211323 74 60 5.0 9.0 0.00 0.00 0.00 47 1003.3
20210731210815 73 94 2.0 9.0 0.00 0.00 0.00 47 1003.3
20210731210308 74 19 3.0 6.0 0.00 0.00 0.00 49 1003.1
20210731205801 75 162 0.0 6.0 0.00 0.00 0.00 45 1003.0
20210731205251 75 263 2.0 6.0 0.00 0.00 0.00 46 1003.1
20210731204750 75 342 3.0 7.0 0.00 0.00 0.00 47 1003.0
20210731204238 74 196 0.0 7.0 0.00 0.00 0.00 47 1003.0
20210731203729 75 19 2.0 9.0 0.00 0.00 0.00 48 1003.1
20210731203220 75 252 3.0 9.0 0.00 0.00 0.00 46 1003.1
20210731202712 75 254 3.0 7.0 0.00 0.00 0.00 46 1003.2
20210731202152 76 181 2.0 7.0 0.00 0.00 0.00 46 1003.0
20210731201644 75 170 1.0 8.0 0.00 0.00 0.00 48 1003.2
20210731201137 75 279 2.0 8.0 0.00 0.00 0.00 45 1002.9
20210731200630 74 179 1.0 9.0 0.00 0.00 0.00 47 1003.0
20210731200122 74 154 2.0 9.0 0.00 0.00 0.00 46 1002.9
20210731195615 74 339 2.0 8.0 0.00 0.00 0.00 48 1003.0
20210731195105 74 228 2.0 8.0 0.00 0.00 0.00 47 1002.9
20210731194557 75 51 1.0 8.0 0.00 0.00 0.00 48 1002.9
20210731194050 75 171 1.0 7.0 0.00 0.00 0.00 47 1002.9
20210731193541 75 311 3.0 7.0 0.00 0.00 0.00 47 1002.8
20210731193032 74 191 0.0 6.0 0.00 0.00 0.00 50 1002.9
20210731192525 74 194 3.0 4.0 0.00 0.00 0.00 48 1002.9
20210731192017 74 173 1.0 7.0 0.00 0.00 0.00 49 1003.1
20210731191509 73 151 1.0 7.0 0.00 0.00 0.00 50 1003.1
20210731190951 73 340 4.0 7.0 0.00 0.00 0.00 48 1003.0
20210731190443 73 313 4.0 7.0 0.00 0.00 0.00 50 1003.2
20210731185936 75 188 3.0 6.0 0.00 0.00 0.00 47 1003.2
20210731185426 75 194 2.0 7.0 0.00 0.00 0.00 46 1003.0
20210731184918 75 242 2.0 7.0 0.00 0.00 0.00 47 1003.0
20210731184412 75 350 5.0 7.0 0.00 0.00 0.00 47 1003.0
20210731183902 75 146 1.0 6.0 0.00 0.00 0.00 46 1003.0
20210731183355 74 188 4.0 6.0 0.00 0.00 0.00 47 1002.9
20210731182845 75 19 2.0 6.0 0.00 0.00 0.00 48 1003.0
20210731182338 75 324 1.0 4.0 0.00 0.00 0.00 48 1002.8
20210731181832 73 175 1.0 6.0 0.00 0.00 0.00 49 1002.8
20210731181322 73 159 0.0 6.0 0.00 0.00 0.00 50 1003.0
20210731180813 72 158 0.0 9.0 0.00 0.00 0.00 52 1003.2
20210731180255 73 300 7.0 9.0 0.00 0.00 0.00 49 1003.2
20210731175748 74 3 5.0 9.0 0.00 0.00 0.00 46 1003.4
20210731175245 74 303 1.0 8.0 0.00 0.00 0.00 46 1003.3
20210731174731 73 301 5.0 8.0 0.00 0.00 0.00 47 1003.1
20210731174223 73 161 1.0 10.0 0.00 0.00 0.00 51 1003.3
20210731173717 73 3 4.0 10.0 0.00 0.00 0.00 51 1003.3
20210731173206 73 134 1.0 7.0 0.00 0.00 0.00 50 1003.3
20210731172658 73 202 2.0 7.0 0.00 0.00 0.00 52 1003.3
20210731172150 74 36 2.0 7.0 0.00 0.00 0.00 51 1003.4
20210731171645 73 135 1.0 8.0 0.00 0.00 0.00 49 1003.3
20210731171136 73 206 2.0 8.0 0.00 0.00 0.00 52 1003.3
20210731170627 73 86 2.0 8.0 0.00 0.00 0.00 51 1003.5
20210731170120 72 173 1.0 8.0 0.00 0.00 0.00 51 1003.5
20210731165612 73 339 2.0 7.0 0.00 0.00 0.00 49 1003.7
20210731165103 73 298 2.0 7.0 0.00 0.00 0.00 52 1003.8
20210731164559 72 306 3.0 7.0 0.00 0.00 0.00 50 1003.8
20210731164049 72 358 4.0 7.0 0.00 0.00 0.00 50 1003.6
20210731163541 72 303 2.0 7.0 0.00 0.00 0.00 49 1003.6
20210731163023 72 165 4.0 9.0 0.00 0.00 0.00 49 1003.6
20210731162513 72 245 2.0 9.0 0.00 0.00 0.00 50 1003.9
20210731162006 71 272 1.0 9.0 0.00 0.00 0.00 54 1003.9
20210731161456 71 112 2.0 6.0 0.00 0.00 0.00 52 1004.0
20210731160949 72 159 0.0 8.0 0.00 0.00 0.00 51 1003.8
20210731160441 71 41 4.0 8.0 0.00 0.00 0.00 51 1003.7
20210731155932 71 193 2.0 7.0 0.00 0.00 0.00 51 1003.8
20210731155424 72 331 3.0 6.0 0.00 0.00 0.00 51 1003.7
20210731154917 71 158 1.0 7.0 0.00 0.00 0.00 54 1003.8
20210731154407 70 352 4.0 8.0 0.00 0.00 0.00 53 1004.0
20210731153901 71 0 3.0 8.0 0.00 0.00 0.00 53 1003.9
20210731153352 71 142 2.0 7.0 0.00 0.00 0.00 53 1004.0
20210731152844 71 165 0.0 7.0 0.00 0.00 0.00 53 1003.8
20210731152337 70 85 1.0 7.0 0.00 0.00 0.00 54 1004.1
20210731151830 70 68 3.0 8.0 0.00 0.00 0.00 53 1003.9
20210731151319 70 161 0.0 8.0 0.00 0.00 0.00 54 1003.8
20210731150812 71 135 0.0 8.0 0.00 0.00 0.00 56 1003.9
20210731150304 71 158 1.0 4.0 0.00 0.00 0.00 55 1003.9
20210731145756 70 146 3.0 4.0 0.00 0.00 0.00 53 1003.9
20210731145248 69 47 2.0 4.0 0.00 0.00 0.00 56 1004.0
20210731144740 69 32 1.0 7.0 0.00 0.00 0.00 54 1003.8
20210731144235 69 4 2.0 7.0 0.00 0.00 0.00 52 1003.9
20210731143727 70 43 3.0 7.0 0.00 0.00 0.00 53 1004.2
20210731143217 70 147 1.0 3.0 0.00 0.00 0.00 52 1004.1
20210731142711 70 175 0.0 2.0 0.00 0.00 0.00 53 1004.0
20210731142148 69 171 0.0 6.0 0.00 0.00 0.00 54 1004.1
20210731141642 68 146 2.0 6.0 0.00 0.00 0.00 54 1003.8
20210731141134 68 11 4.0 6.0 0.00 0.00 0.00 54 1004.0
20210731140625 68 11 4.0 7.0 0.00 0.00 0.00 54 1004.0
20210731140119 67 182 3.0 8.0 0.00 0.00 0.00 56 1004.2
20210731135610 67 230 5.0 9.0 0.00 0.00 0.00 56 1004.2
20210731135101 66 333 3.0 9.0 0.00 0.00 0.00 56 1004.1
20210731134555 66 343 3.0 8.0 0.00 0.00 0.00 56 1004.1
20210731134047 66 158 1.0 7.0 0.00 0.00 0.00 58 1003.7
20210731133538 66 111 0.0 11.0 0.00 0.00 0.00 56 1003.9
20210731133030 65 187 2.0 11.0 0.00 0.00 0.00 58 1004.0
20210731132522 65 303 4.0 8.0 0.00 0.00 0.00 58 1004.0
20210731132013 65 19 4.0 9.0 0.00 0.00 0.00 57 1004.0
20210731131505 65 354 6.0 9.0 0.00 0.00 0.00 57 1003.9
20210731130956 65 3 4.0 8.0 0.00 0.00 0.00 59 1003.8
20210731130450 65 141 3.0 6.0 0.00 0.00 0.00 58 1004.2
20210731125942 65 164 2.0 8.0 0.00 0.00 0.00 59 1003.8
20210731125435 64 39 2.0 8.0 0.00 0.00 0.00 59 1003.8
20210731124924 64 155 0.0 7.0 0.00 0.00 0.00 62 1003.9
20210731124417 63 58 2.0 9.0 0.00 0.00 0.00 63 1004.0
20210731123911 62 320 2.0 9.0 0.00 0.00 0.00 63 1004.0
20210731123400 62 23 4.0 7.0 0.00 0.00 0.00 63 1004.0
20210731122852 61 318 2.0 9.0 0.00 0.00 0.00 64 1004.2
20210731122345 60 31 4.0 9.0 0.00 0.00 0.00 66 1004.2
20210731121837 60 351 2.0 8.0 0.00 0.00 0.00 67 1004.2
20210731121329 60 75 1.0 7.0 0.00 0.00 0.00 67 1004.4
20210731120821 60 163 3.0 8.0 0.00 0.00 0.00 68 1004.2
20210731120314 60 169 2.0 8.0 0.00 0.00 0.00 69 1004.2
20210731115806 59 186 2.0 6.0 0.00 0.00 0.00 68 1004.5
20210731115259 59 171 1.0 3.0 0.00 0.00 0.00 70 1004.4
20210731114752 59 154 0.0 6.0 0.00 0.00 0.00 69 1004.3
20210731114245 59 156 0.0 7.0 0.00 0.00 0.00 68 1004.3
20210731113734 59 346 5.0 7.0 0.00 0.00 0.00 67 1004.3
20210731113226 59 90 1.0 4.0 0.00 0.00 0.00 67 1004.1
20210731112719 59 174 2.0 7.0 0.00 0.00 0.00 67 1004.0
20210731112209 59 246 2.0 8.0 0.00 0.00 0.00 67 1004.0
20210731111701 58 237 3.0 8.0 0.00 0.00 0.00 67 1003.8
20210731111154 58 9 1.0 8.0 0.00 0.00 0.00 67 1003.9
20210731110644 58 218 2.0 8.0 0.00 0.00 0.00 67 1003.8
20210731110139 58 125 2.0 8.0 0.00 0.00 0.00 68 1004.0
20210731105629 58 357 3.0 7.0 0.00 0.00 0.00 68 1003.9
20210731105121 58 28 3.0 8.0 0.00 0.00 0.00 68 1003.7
20210731104613 58 10 5.0 8.0 0.00 0.00 0.00 67 1003.6
20210731104105 58 313 3.0 8.0 0.00 0.00 0.00 67 1003.4
20210731103600 57 283 5.0 8.0 0.00 0.00 0.00 68 1003.5
20210731103038 57 298 1.0 6.0 0.00 0.00 0.00 68 1003.6
20210731102535 57 161 0.0 7.0 0.00 0.00 0.00 68 1003.4
20210731102022 57 173 1.0 7.0 0.00 0.00 0.00 69 1003.3
20210731101513 57 150 2.0 6.0 0.00 0.00 0.00 69 1003.2
20210731101006 57 158 0.0 8.0 0.00 0.00 0.00 69 1003.2
20210731100448 58 65 4.0 8.0 0.00 0.00 0.00 68 1003.2
20210731095938 58 353 2.0 8.0 0.00 0.00 0.00 68 1002.9
20210731095431 57 0 2.0 9.0 0.00 0.00 0.00 68 1002.6
20210731094923 57 55 1.0 9.0 0.00 0.00 0.00 69 1002.9
20210731094415 57 313 4.0 9.0 0.00 0.00 0.00 68 1003.0
20210731093908 58 90 2.0 11.0 0.00 0.00 0.00 67 1003.0
20210731093358 58 185 3.0 11.0 0.00 0.00 0.00 67 1002.9
20210731092851 58 358 3.0 11.0 0.00 0.00 0.00 66 1002.7
20210731092344 58 317 4.0 9.0 0.00 0.00 0.00 67 1002.9
20210731091839 58 8 2.0 9.0 0.00 0.00 0.00 67 1003.0
20210731091327 58 353 3.0 9.0 0.00 0.00 0.00 67 1002.8
20210731090819 58 350 3.0 9.0 0.00 0.00 0.00 68 1002.7
20210731090312 58 144 2.0 11.0 0.00 0.00 0.00 68 1002.6
20210731085803 58 144 2.0 11.0 0.00 0.00 0.00 68 1002.4
20210731085255 58 86 1.0 8.0 0.00 0.00 0.00 67 1002.4
20210731084747 58 298 2.0 8.0 0.00 0.00 0.00 67 1002.6
20210731084239 58 65 4.0 8.0 0.00 0.00 0.00 67 1002.7
20210731083744 58 109 3.0 7.0 0.00 0.00 0.00 67 1002.7
20210731083222 58 62 2.0 11.0 0.00 0.00 0.00 68 1002.7
20210731082715 58 71 4.0 11.0 0.00 0.00 0.00 68 1002.7
20210731082209 58 111 2.0 11.0 0.00 0.00 0.00 68 1002.7
20210731081659 58 29 2.0 11.0 0.00 0.00 0.00 69 1002.5
20210731081150 58 152 2.0 7.0 0.00 0.00 0.00 69 1002.4
20210731080644 57 2 4.0 7.0 0.00 0.00 0.00 70 1002.5
20210731080138 58 62 3.0 8.0 0.00 0.00 0.00 70 1002.7
20210731075626 58 6 3.0 9.0 0.00 0.00 0.00 68 1002.7
20210731075121 58 38 4.0 9.0 0.00 0.00 0.00 69 1002.7
20210731074610 58 289 2.0 8.0 0.00 0.00 0.00 70 1002.8
20210731074103 58 292 2.0 8.0 0.00 0.00 0.00 70 1002.6
20210731073546 58 351 2.0 6.0 0.00 0.00 0.00 71 1002.6
20210731073037 58 0 3.0 8.0 0.00 0.00 0.00 71 1002.7
20210731072528 58 223 3.0 8.0 0.00 0.00 0.00 71 1002.8
20210731072019 58 313 4.0 6.0 0.00 0.00 0.00 72 1002.7
20210731071514 58 7 2.0 6.0 0.00 0.00 0.00 72 1002.8
20210731071005 58 135 2.0 6.0 0.00 0.00 0.00 73 1002.9